Temperature
23 24 24 25 25 25 25 25 25 26 25 25 25 26 26 25 24 24 24 24 23 22 21 20 19 18 18 17 17 16 16 15 15 14 14 14 14 13 13 13 13 12 12 12
23 24 25 25 24 24 24 24 25 25 25 25 25 26 26 25 24 24 24 24 23 22 21 19 19 18 18 17 17 16 16 15 15 14 14 13 13 13 13 13 12 12 12 12
24 25 25 24 24 24 24 24 25 25 24 24 25 26 26 25 24 23 23 23 22 21 21 20 19 18 17 17 17 16 15 15 15 14 14 13 13 13 13 13 12 12 12 12
24 24 24 24 24 24 24 25 24 24 24 25 24 25 27 26 25 24 23 22 22 21 20 20 19 18 17 17 16 16 15 15 14 14 14 13 13 13 13 12 12 12 12 12
24 24 24 24 24 24 24 24 24 24 24 24 25 25 27 26 26 25 24 23 22 21 20 19 19 18 17 17 16 16 15 15 14 14 14 13 13 13 13 12 12 12 12 12
24 24 24 24 24 24 23 23 23 24 25 24 25 25 26 27 26 26 25 23 22 21 20 19 18 18 17 17 16 16 15 15 14 14 14 13 13 13 13 12 12 12 12 12
23 24 23 23 23 23 23 24 23 24 24 24 24 24 26 26 25 25 25 24 22 21 20 19 18 18 17 17 16 16 15 15 14 14 14 13 13 13 13 12 12 12 12 12
23 23 24 24 24 24 24 24 24 23 24 25 24 25 26 25 24 23 23 23 21 21 20 19 19 18 17 17 16 16 15 15 15 14 14 13 13 13 13 12 12 12 12 12
23 23 23 23 24 24 24 24 25 25 24 24 25 25 26 24 24 24 23 22 21 21 20 19 19 18 18 17 17 16 16 15 15 14 14 13 13 13 13 12 12 12 12 12
24 23 24 23 23 22 24 25 24 24 23 23 24 25 26 25 25 25 24 23 22 21 20 20 19 18 18 17 17 16 16 15 15 14 14 14 13 13 13 13 12 12 12 12
23 23 23 23 24 24 23 24 24 25 24 24 24 25 26 26 26 26 25 24 23 22 21 20 19 18 18 17 17 16 16 15 15 14 14 14 13 13 13 13 13 12 12 12
23 23 24 24 24 24 24 25 25 24 24 24 24 25 26 26 25 25 25 23 22 21 21 20 19 18 18 17 17 16 16 15 15 15 14 14 13 13 13 13 13 13 12 12
23 23 23 23 23 23 24 23 24 24 25 24 24 25 26 26 25 24 24 23 22 21 20 20 19 19 18 18 17 17 16 16 15 15 14 14 14 13 13 13 13 13 13 12
22 24 23 23 23 24 23 23 23 24 24 24 24 25 26 26 26 25 24 23 22 21 20 20 19 19 18 18 17 17 16 16 15 15 14 14 14 13 13 13 13 13 13 12
23 23 24 24 24 23 23 24 23 23 25 25 25 25 26 26 26 25 24 23 22 21 20 20 19 19 18 18 17 17 16 16 15 15 14 14 14 14 13 13 13 13 13 13
23 23 24 24 24 23 23 24 24 23 24 24 24 25 26 26 25 24 24 23 22 21 21 20 20 19 19 18 18 17 16 16 15 15 14 14 14 14 14 13 13 13 13 13
23 23 23 23 24 23 23 24 24 24 24 24 24 25 26 25 25 24 24 23 22 22 21 20 20 19 19 18 18 17 16 16 15 15 15 15 14 14 14 13 13 13 13 13
22 23 23 23 23 22 24 25 24 24 24 25 25 25 25 24 24 23 23 22 22 21 21 20 20 19 19 18 18 17 17 16 16 15 15 15 14 14 14 13 13 13 13 13
21 22 22 23 22 23 24 25 24 24 24 25 25 25 24 23 23 23 22 22 22 21 21 20 20 19 19 18 18 17 17 16 16 15 15 15 15 14 14 14 13 13 13 13
20 21 22 22 22 22 24 24 23 24 24 25 24 24 23 23 25 25 22 21 21 21 21 21 20 19 19 18 18 17 16 16 16 15 15 15 15 14 14 14 13 13 13 13
21 21 21 22 22 23 24 22 22 23 24 23 23 23 22 23 24 22 21 21 21 21 21 21 20 19 19 18 18 17 16 16 16 16 15 15 14 14 14 14 13 13 13 13
22 22 22 22 22 22 23 22 23 23 23 22 21 21 21 21 21 20 20 20 21 21 21 20 20 19 19 18 17 17 16 16 16 16 15 15 14 14 14 14 13 13 13 12
21 22 22 22 23 22 21 21 21 20 21 21 20 20 20 20 20 20 20 20 20 20 20 20 19 19 18 18 17 16 16 16 16 15 15 15 14 14 14 13 13 12 12 12
21 20 20 21 22 21 20 20 19 19 19 19 19 19 19 19 20 19 19 19 19 20 20 19 19 18 18 18 17 16 16 16 15 15 15 14 14 14 13 13 13 12 12 12
20 19 20 20 21 21 20 20 19 19 18 19 19 19 19 19 19 19 19 19 19 19 19 19 18 18 18 17 17 16 16 16 15 15 14 14 14 13 13 13 13 12 12 12
19 19 19 20 20 20 20 19 18 18 18 18 18 18 19 18 19 19 19 19 19 19 19 19 18 18 17 17 17 16 16 15 15 14 14 14 13 13 12 12 12 12 12 12
Wind_Speed
10 11 13 13 13 10 8 8 9 6 2 6 10 11 8 5 6 7 8 8 8 8 7 7 7 7 7 6 5 3 2 0 1 2 3 4 4 5 4 5 6 6 7 7
9 14 12 9 8 9 9 10 9 6 1 5 9 11 8 5 6 6 7 8 8 8 8 8 8 8 7 6 5 4 2 1 1 2 3 4 5 5 5 5 5 6 6 6
12 7 8 9 10 10 11 10 8 7 4 5 8 9 6 4 4 5 6 6 7 8 8 9 8 8 7 6 5 3 2 1 0 1 2 3 3 4 4 5 5 5 6 5
9 5 8 11 12 11 10 7 7 7 7 5 4 7 3 3 4 5 6 7 8 8 8 8 8 8 7 6 5 4 3 1 0 1 2 4 5 5 6 6 5 6 5 5
6 7 9 11 9 9 5 2 4 6 6 7 6 7 2 3 5 5 6 7 8 8 8 8 8 7 7 6 5 4 3 2 1 1 2 4 5 5 5 5 5 6 5 5
3 3 5 6 3 5 5 5 4 5 6 7 5 6 3 3 3 4 5 7 8 9 8 8 8 7 6 6 5 4 3 2 1 2 3 3 5 5 6 6 6 6 5 5
5 5 4 3 5 6 7 6 5 5 5 4 2 5 3 2 0 2 3 6 8 9 9 9 9 8 7 7 6 5 4 3 2 2 3 3 4 5 5 6 6 6 6 5
4 5 5 5 5 5 8 8 5 3 3 2 3 5 1 1 1 2 3 5 8 9 9 9 9 8 8 7 7 6 5 3 2 2 3 3 3 3 4 5 5 6 6 6
2 2 3 2 2 3 5 6 4 4 3 4 3 3 2 3 4 5 6 7 8 9 10 9 9 9 8 8 7 6 5 4 3 2 2 3 3 3 4 5 5 5 6 6
3 1 3 3 4 1 2 3 4 4 3 4 3 3 1 3 6 7 7 8 8 9 9 9 9 9 8 8 7 6 5 4 3 2 2 2 2 3 4 4 5 5 6 6
3 2 3 5 5 5 5 4 4 3 3 4 3 1 1 1 3 5 6 7 7 8 9 9 9 9 8 8 7 6 6 4 3 2 2 2 2 2 3 4 5 5 5 5
2 3 3 3 1 2 5 6 7 6 4 4 5 2 2 2 3 5 6 6 7 7 8 8 9 9 9 8 8 7 6 5 3 2 2 1 2 2 3 4 4 4 5 5
2 3 3 4 5 4 5 4 6 6 5 6 7 4 3 3 4 5 6 7 7 8 8 9 9 9 9 9 8 7 6 5 4 3 2 1 1 2 3 3 4 4 4 4
3 4 5 4 2 1 4 5 7 8 8 8 9 10 7 6 6 6 7 8 8 8 9 9 9 10 9 9 8 7 6 5 4 3 3 2 1 2 2 3 3 4 4 4
3 6 6 7 6 6 7 7 8 10 10 11 11 11 11 9 8 7 6 7 8 9 10 10 10 10 10 9 9 8 7 6 5 4 3 2 2 2 2 2 3 3 4 4
4 6 7 7 6 7 9 9 10 12 11 12 13 13 10 8 7 7 7 8 9 10 10 10 11 11 11 10 9 8 8 7 6 5 3 3 2 2 2 3 3 3 3 4
5 6 7 8 5 7 9 9 9 9 9 10 12 11 9 8 7 7 7 8 9 10 10 11 11 11 11 11 10 10 8 7 6 5 4 3 3 3 3 3 2 3 3 3
8 8 6 8 7 9 4 2 6 9 9 9 10 10 9 9 8 7 6 7 8 9 10 10 10 10 10 10 10 9 8 7 6 5 4 3 3 3 2 2 2 3 3 3
10 7 6 7 9 9 7 5 4 6 7 5 7 8 7 6 4 5 5 6 6 7 8 9 9 10 10 10 10 9 9 7 6 5 4 3 3 2 2 2 2 3 3 3
6 8 7 7 9 9 5 1 1 5 6 4 5 7 5 4 4 2 0 3 5 5 7 8 9 10 10 10 10 10 9 7 6 5 4 3 2 2 2 2 2 2 3 3
5 6 9 11 10 8 4 1 3 5 3 7 6 6 4 4 5 4 1 1 4 5 7 9 10 9 9 10 10 10 9 7 6 5 4 4 3 2 1 1 2 2 2 2
7 7 8 8 10 7 1 2 3 4 6 7 7 7 6 7 6 4 2 2 4 6 7 9 9 9 9 10 10 10 8 7 6 6 5 4 3 1 1 0 1 1 1 1
7 7 6 7 5 1 0 2 3 5 6 7 8 8 7 7 6 4 3 4 5 7 8 8 9 10 9 9 10 10 8 8 7 7 6 4 4 2 1 1 1 1 1 1
7 4 6 8 9 6 6 5 5 6 8 9 9 8 8 7 7 5 4 4 6 7 8 9 10 11 10 10 9 8 9 9 9 8 7 5 4 3 2 1 1 1 2 2
9 6 8 12 12 10 8 6 7 9 10 10 10 8 8 8 8 6 5 6 6 7 8 10 11 11 11 11 10 9 9 10 9 8 7 6 5 4 3 3 3 2 4 4
13 13 14 14 11 10 11 11 11 12 11 11 11 10 9 8 8 7 6 6 7 8 8 10 11 11 12 12 11 10 10 10 10 8 7 5 5 4 4 4 5 7 5 8
Wind_Direction
185 203 213 215 222 243 252 251 255 266 281 255 264 272 275 252 232 228 216 208 200 192 179 172 170 172 173 171 171 164 181 158 335 334 329 330 333 330 331 330 329 323 317 315
194 218 222 223 219 229 241 249 255 265 266 268 282 281 273 244 231 229 218 204 198 186 179 172 172 175 179 173 175 175 178 181 339 342 328 325 323 321 328 325 325 326 324 319
213 216 202 206 213 224 237 247 256 274 284 254 287 273 239 190 208 210 212 205 193 189 187 177 177 179 179 179 176 180 186 190 339 324 319 319 317 310 322 332 335 334 327 321
224 207 199 212 221 228 239 246 256 262 267 270 278 286 245 189 204 196 191 189 187 183 184 178 178 181 184 181 177 185 184 196 217 278 318 329 331 335 339 335 334 326 324 325
207 203 209 221 225 226 236 206 233 246 259 268 247 269 251 179 203 181 180 183 182 179 180 176 179 180 181 177 179 184 185 194 229 284 309 309 326 334 334 333 334 328 331 328
220 209 231 235 212 209 166 172 191 223 244 251 245 258 256 174 168 152 163 176 179 176 175 172 169 173 175 174 177 184 191 198 230 269 289 306 323 326 330 335 338 332 331 328
201 194 188 193 170 167 197 216 222 217 220 236 170 252 259 82 124 205 180 175 176 177 177 175 175 178 178 179 182 188 193 209 233 270 292 305 313 317 325 331 335 332 334 335
209 186 182 201 221 199 205 229 245 259 249 231 205 248 235 100 234 227 205 176 175 179 181 182 183 182 183 184 187 195 199 215 234 268 294 305 309 310 325 328 330 331 335 336
244 155 121 178 222 213 194 221 270 279 282 274 245 258 255 166 189 185 178 175 182 185 185 187 185 186 188 189 191 197 202 215 230 253 281 302 314 315 321 322 326 330 333 333
298 227 137 145 165 87 282 190 208 241 264 266 266 256 248 181 190 187 190 189 187 187 188 187 186 188 190 190 191 193 203 214 224 242 268 292 302 313 318 322 329 331 333 334
281 254 163 178 211 199 178 199 226 238 264 280 286 290 58 248 206 205 203 198 192 191 191 189 188 187 187 186 186 191 199 208 214 230 252 271 297 313 317 324 329 329 329 332
278 273 219 186 154 270 233 236 230 246 239 256 280 287 120 231 237 229 222 208 199 196 193 190 186 183 185 186 187 190 194 196 199 213 239 266 292 304 317 331 332 328 327 330
277 265 229 187 179 181 213 227 239 258 257 248 261 274 140 222 240 230 226 214 200 194 191 188 185 186 187 187 188 190 192 191 188 194 215 241 263 305 322 330 332 333 332 335
267 265 273 267 321 275 227 220 226 234 252 255 258 279 282 271 260 244 230 219 206 197 192 189 186 187 186 187 187 188 187 185 184 192 208 232 256 287 305 320 327 333 335 335
258 272 272 275 278 269 261 248 230 238 259 270 280 278 284 291 278 259 241 219 205 200 197 193 190 187 184 185 185 184 184 184 186 193 208 226 242 256 285 305 316 327 334 332
270 275 277 266 260 258 258 257 246 247 256 262 273 276 282 290 278 260 242 220 211 206 201 196 190 187 186 184 182 181 185 186 190 199 210 216 235 241 266 288 306 322 326 328
261 267 273 271 268 259 254 253 249 251 251 259 268 281 294 288 276 265 250 225 218 209 199 192 190 189 189 185 182 183 184 182 192 200 201 213 226 233 256 276 292 303 311 323
254 256 262 272 264 254 276 271 250 256 266 264 268 286 293 291 284 270 253 232 219 203 193 189 187 185 185 180 179 180 178 182 191 196 197 203 224 234 248 269 286 294 308 320
231 240 250 258 261 264 265 259 243 249 266 288 281 292 304 311 277 248 230 224 219 199 190 183 181 176 176 174 174 176 178 180 186 191 195 193 202 218 239 262 283 294 303 310
206 227 243 245 254 259 271 15 269 250 252 351 321 313 313 296 266 276 122 205 200 183 174 168 168 168 169 169 171 177 180 180 184 185 188 180 188 208 242 273 291 299 300 299
194 207 229 244 252 258 292 326 211 240 317 3 343 330 311 275 300 335 324 201 179 170 165 162 164 167 167 166 171 179 179 180 176 173 172 169 178 199 240 289 303 305 308 313
242 233 229 235 244 249 100 157 229 318 349 349 343 334 312 298 307 308 273 202 175 167 166 165 163 161 162 167 174 176 174 169 163 162 164 167 170 175 175 152 342 336 335 337
242 252 259 243 254 4 133 256 319 331 325 330 327 325 312 300 293 285 257 217 189 179 172 171 166 159 161 170 178 176 167 164 161 161 164 166 161 154 143 134 108 31 5 354
251 257 258 260 262 273 279 276 290 302 306 313 312 309 299 292 287 275 256 223 199 186 178 173 172 170 168 171 176 173 162 164 165 166 168 166 165 156 138 110 71 39 11 1
266 257 261 266 275 286 267 276 301 306 304 304 303 299 292 285 280 268 252 229 208 192 184 181 181 180 175 171 172 169 166 169 172 172 172 170 166 158 139 114 65 57 54 33
249 250 257 266 275 279 285 300 304 300 298 300 300 296 292 278 272 264 252 230 210 197 189 187 187 184 179 175 174 171 172 177 178 177 175 172 166 160 157 142 115 74 71 69
Height
1501 1503 1502 1500 1499 1500 1500 1503 1504 1500 1500 1503 1500 1497 1495 1498 1501 1501 1502 1504 1506 1509 1512 1514 1514 1516 1517 1518 1520 1520 1520 1519 1518 1517 1516 1515 1513 1511 1510 1507 1505 1503 1501 1499
1501 1500 1496 1497 1500 1502 1503 1504 1503 1499 1501 1501 1498 1495 1491 1495 1497 1499 1500 1502 1504 1507 1510 1512 1513 1514 1516 1517 1518 1519 1519 1518 1517 1516 1515 1513 1511 1510 1508 1505 1503 1501 1499 1497
1496 1495 1496 1499 1501 1503 1502 1503 1502 1502 1501 1500 1500 1494 1489 1492 1495 1497 1499 1500 1503 1505 1508 1510 1511 1513 1514 1516 1517 1517 1517 1517 1516 1514 1514 1512 1511 1509 1508 1505 1502 1500 1497 1495
1494 1494 1497 1498 1499 1499 1503 1499 1501 1502 1504 1501 1502 1502 1488 1488 1491 1494 1496 1499 1501 1504 1506 1508 1510 1511 1513 1514 1515 1516 1516 1515 1515 1514 1513 1512 1510 1509 1506 1504 1501 1499 1496 1494
1493 1494 1496 1497 1496 1497 1498 1501 1501 1502 1502 1502 1499 1500 1488 1487 1488 1489 1493 1496 1499 1502 1504 1506 1508 1510 1512 1513 1513 1514 1514 1514 1513 1513 1511 1510 1509 1508 1506 1503 1501 1498 1496 1493
1492 1495 1495 1494 1496 1498 1500 1502 1503 1501 1500 1507 1498 1499 1493 1483 1484 1487 1491 1495 1498 1500 1503 1505 1507 1508 1510 1511 1512 1513 1513 1513 1512 1511 1511 1510 1508 1506 1505 1502 1500 1498 1495 1493
1494 1493 1495 1496 1497 1500 1500 1503 1509 1509 1508 1503 1496 1499 1491 1484 1486 1488 1490 1493 1496 1499 1501 1503 1505 1507 1508 1509 1510 1511 1512 1512 1511 1511 1510 1509 1507 1506 1504 1502 1499 1497 1495 1492
1497 1497 1492 1493 1493 1495 1496 1497 1507 1513 1510 1500 1498 1496 1485 1484 1487 1489 1491 1492 1495 1497 1499 1501 1503 1505 1507 1508 1509 1510 1510 1511 1510 1509 1509 1508 1506 1505 1503 1501 1499 1497 1494 1491
1495 1496 1493 1494 1494 1493 1496 1495 1492 1497 1499 1503 1493 1489 1482 1484 1485 1487 1489 1491 1493 1495 1498 1500 1502 1503 1505 1506 1507 1508 1509 1509 1509 1508 1507 1506 1505 1504 1502 1500 1498 1496 1494 1491
1492 1495 1492 1494 1495 1496 1494 1492 1495 1498 1508 1508 1499 1492 1486 1482 1482 1484 1487 1489 1491 1494 1496 1498 1500 1501 1503 1504 1505 1506 1507 1508 1507 1507 1506 1505 1504 1503 1501 1500 1498 1496 1493 1490
1493 1494 1494 1493 1493 1492 1496 1496 1494 1494 1496 1504 1506 1494 1478 1478 1479 1481 1483 1486 1489 1491 1493 1495 1497 1499 1501 1502 1503 1505 1506 1506 1506 1506 1505 1504 1503 1502 1501 1499 1497 1495 1492 1490
1494 1492 1492 1491 1490 1490 1490 1489 1491 1496 1497 1496 1497 1492 1475 1478 1480 1481 1483 1485 1487 1489 1491 1493 1495 1497 1498 1500 1502 1503 1504 1504 1504 1504 1504 1503 1502 1501 1500 1498 1496 1494 1492 1490
1494 1493 1496 1497 1496 1493 1491 1491 1490 1489 1490 1493 1497 1489 1475 1477 1478 1480 1481 1483 1485 1487 1488 1490 1492 1494 1496 1498 1500 1501 1502 1503 1503 1503 1503 1502 1501 1500 1499 1498 1496 1494 1492 1490
1496 1491 1494 1499 1493 1489 1490 1492 1491 1490 1489 1489 1488 1482 1474 1473 1474 1476 1478 1480 1482 1484 1485 1487 1489 1491 1493 1495 1497 1499 1500 1501 1501 1501 1501 1501 1500 1499 1498 1497 1495 1494 1492 1490
1494 1491 1488 1487 1487 1488 1488 1487 1488 1488 1483 1484 1479 1477 1472 1470 1471 1473 1475 1476 1478 1480 1482 1484 1486 1488 1490 1493 1495 1497 1498 1499 1499 1500 1500 1500 1499 1498 1497 1496 1495 1493 1491 1490
1492 1490 1488 1487 1485 1485 1486 1483 1483 1483 1481 1479 1478 1475 1468 1469 1470 1470 1471 1473 1475 1477 1479 1481 1483 1485 1488 1490 1492 1494 1495 1497 1498 1498 1498 1498 1498 1497 1496 1495 1494 1493 1491 1490
1490 1489 1490 1487 1483 1484 1485 1477 1477 1476 1474 1475 1475 1470 1466 1467 1467 1468 1468 1469 1471 1473 1475 1477 1480 1482 1485 1488 1490 1492 1493 1495 1496 1497 1496 1496 1496 1496 1495 1494 1493 1492 1491 1489
1490 1488 1487 1485 1486 1494 1477 1470 1472 1473 1471 1469 1468 1467 1466 1466 1465 1465 1466 1467 1468 1470 1472 1474 1477 1480 1483 1485 1487 1490 1491 1493 1494 1495 1495 1495 1495 1494 1494 1493 1492 1491 1490 1488
1489 1488 1487 1485 1487 1482 1472 1468 1470 1471 1469 1465 1465 1465 1465 1465 1463 1462 1463 1464 1466 1467 1469 1472 1474 1477 1480 1483 1485 1487 1489 1491 1492 1493 1493 1493 1493 1493 1492 1492 1491 1490 1489 1488
1489 1487 1486 1485 1489 1487 1472 1467 1469 1470 1468 1464 1464 1464 1464 1464 1460 1459 1461 1462 1463 1465 1467 1469 1472 1475 1478 1480 1483 1485 1487 1489 1490 1491 1491 1491 1491 1491 1491 1490 1489 1488 1487 1486
1485 1486 1486 1483 1482 1473 1466 1468 1469 1474 1469 1466 1465 1464 1464 1463 1461 1462 1461 1461 1462 1463 1465 1468 1470 1473 1475 1478 1480 1483 1485 1487 1488 1488 1489 1489 1490 1490 1489 1489 1488 1487 1486 1485
1477 1478 1478 1477 1480 1475 1466 1467 1468 1467 1466 1466 1465 1464 1463 1463 1461 1460 1460 1460 1461 1462 1464 1466 1468 1471 1473 1475 1478 1481 1482 1484 1485 1486 1487 1488 1488 1488 1488 1487 1486 1486 1485 1484
1474 1471 1469 1469 1468 1466 1467 1467 1468 1467 1466 1466 1464 1463 1462 1460 1459 1459 1458 1458 1459 1460 1462 1464 1466 1468 1471 1473 1476 1478 1480 1481 1483 1484 1485 1486 1486 1486 1486 1486 1485 1485 1484 1483
1471 1474 1472 1468 1463 1465 1466 1466 1466 1466 1465 1464 1463 1461 1460 1458 1457 1457 1456 1456 1457 1458 1459 1461 1464 1466 1468 1470 1473 1475 1477 1479 1480 1482 1483 1484 1484 1484 1484 1484 1484 1483 1483 1482
1472 1473 1469 1466 1463 1464 1463 1463 1463 1463 1462 1461 1459 1458 1457 1456 1454 1454 1453 1453 1454 1455 1457 1459 1461 1463 1465 1468 1470 1472 1474 1476 1478 1480 1481 1481 1482 1482 1483 1482 1482 1482 1481 1481
1470 1469 1467 1463 1462 1462 1460 1461 1460 1459 1458 1457 1455 1453 1453 1452 1451 1450 1450 1450 1451 1452 1453 1455 1457 1460 1462 1464 1467 1469 1471 1473 1475 1477 1478 1479 1479 1480 1480 1481 1480 1480 1479 1479